Weather observations for the past three days for
Northeast Florida Regional Airport
Imperial (Metric)
Date Time (edt) Wind (mph) Vis. (mi.) Weather Sky Cond. Temperature (ºF) Relative Humidity Wind Chill (°F) Heat Index (°F) Pressure Precipitation (in)
Air Dwpt 6 hour altimeter (in) sea level (mb) 1 hr 3 hr 6 hr
Max. Min.
14 04:56 NW 6 10.00 A Few Clouds FEW025 77 73.9 90% 78 29.89 1011.9
14 03:56 N 6 10.00 Partly Cloudy SCT019 79 75 88% 83 29.88 1011.7
14 02:56 N 7 10.00 Partly Cloudy SCT017 80.1 75 85% 85 29.87 1011.5
14 01:56 NE 7 10.00 Mostly Cloudy BKN017 80.1 75 82 80.1 85% 85 29.89 1012.2
14 00:56 NE 10 10.00 Mostly Cloudy BKN015 BKN026 80.1 75 85% 85 29.91 1012.7
13 23:56 NE 10 10.00 Mostly Cloudy BKN017 81 75 82% 87 29.91 1012.9
13 22:56 NE 9 10.00 Overcast BKN017 OVC024 81 75.9 85% 87 29.91 1012.8
13 21:56 NE 12 10.00 Mostly Cloudy BKN018 81 75 82% 87 29.9 1012.4
13 20:56 N 12 10.00 Mostly Cloudy BKN016 BKN021 81 75 82% 87 29.91 1012.6
13 19:56 NE 15 10.00 Overcast BKN018 OVC025 82 75 88 82 79% 89 29.9 1012.4
13 18:56 NE 13 10.00 Mostly Cloudy BKN018 82.9 75.9 79% 91 29.9 1012.4
13 17:56 NE 15 10.00 A Few Clouds FEW016 84.9 75.9 75% 94 29.88 1011.8
13 16:56 NE 12 10.00 Fair CLR 86 75.9 72% 96 29.89 1012.1
13 15:56 NE 12 10.00 Partly Cloudy SCT015 86 75.9 72% 96 29.89 1012.1
13 14:56 NE 10 10.00 Fair CLR 87.1 75.9 70% 98 29.91 1012.6
13 13:56 NE 14 10.00 A Few Clouds FEW019 87.1 75.9 88 82 70% 98 29.92 1013.0
13 12:56 NE 14 10.00 Partly Cloudy SCT020 87.1 75.9 70% 98 29.91 1012.8
13 11:56 NE 12 10.00 A Few Clouds FEW021 86 75 70% 95 29.91 1012.7
13 10:56 NE 13 10.00 Mostly Cloudy BKN015 86 75 70% 95 29.92 1012.9
13 09:56 NE 12 10.00 Partly Cloudy FEW016 SCT025 SCT037 84.9 75.9 75% 94 29.92 1012.9
13 08:56 NE 12 7.00 Mostly Cloudy BKN010 BKN027 BKN080 84 75.9 77% 93 29.92 1013.0
13 07:56 NE 8 7.00 Thunderstorm in Vicinity BKN010 BKN039 BKN070 82 75.9 82 80.1 82% 89 29.9 1012.3
13 06:56 NE 7 10.00 Mostly Cloudy BKN014 BKN039 BKN070 81 75.9 85% 87 29.88 1011.7
13 05:56 NE 8 10.00 Overcast BKN012 BKN017 OVC023 81 75.9 85% 87 29.86 1011.2
13 04:56 NE 6 10.00 A Few Clouds FEW014 80.1 75.9 87% 85 29.86 1011.0
13 03:56 NE 7 10.00 Mostly Cloudy SCT016 BKN065 80.1 75.9 87% 85 29.86 1011.2
13 02:56 NE 3 10.00 Partly Cloudy SCT015 80.1 75.9 87% 85 29.86 1011.0
13 01:56 NE 5 10.00 Partly Cloudy FEW014 SCT028 80.1 75.9 82 80.1 87% 85 29.88 1011.6
13 00:56 E 6 10.00 Partly Cloudy SCT014 81 75.9 85% 87 29.9 1012.4
12 23:56 E 6 10.00 Partly Cloudy SCT016 81 75.9 85% 87 29.91 1012.7
12 22:56 NE 9 10.00 A Few Clouds FEW014 81 75.9 85% 87 29.9 1012.4
12 21:56 E 10 10.00 Fair CLR 81 75 82% 87 29.9 1012.5
12 20:56 E 9 10.00 A Few Clouds FEW014 81 75.9 85% 87 29.92 1013.1
12 19:56 E 10 10.00 Overcast BKN014 OVC022 82 77 88 82 85% 90 29.91 1012.6
12 18:56 E 13 10.00 Partly Cloudy FEW021 SCT029 84 73.9 72% 91 29.91 1012.7
12 17:56 NE 14 10.00 Fair CLR 84.9 77 77% 95 29.91 1012.8
12 16:56 E 13 10.00 Fair CLR 84.9 77 77% 95 29.91 1012.7
12 15:56 NE 16 10.00 Partly Cloudy FEW013 SCT019 86 77 75% 97 29.93 1013.3
12 14:56 NE 14 10.00 Partly Cloudy SCT017 87.1 75.9 70% 98 29.94 1013.6
12 13:56 E 9 10.00 Mostly Cloudy BKN017 86 75.9 87.1 79 72% 96 29.94 1013.9
12 12:56 E 8 10.00 Partly Cloudy SCT017 84.9 75.9 75% 94 29.94 1013.9
12 11:56 E 9 10.00 Mostly Cloudy BKN019 84.9 75.9 75% 94 29.93 1013.5
12 10:56 Vrbl 7 10.00 Mostly Cloudy BKN017 BKN045 84 75 74% 92 29.94 1013.6
12 09:56 Vrbl 7 10.00 Mostly Cloudy BKN017 82.9 75 77% 90 29.94 1013.6
12 08:56 E 5 10.00 Mostly Cloudy BKN012 BKN090 81 73.9 79% 86 29.93 1013.4
12 07:56 Calm 10.00 Overcast OVC090 79 75 79 75.9 88% 83 29.92 1013.1
12 06:56 S 3 10.00 Overcast OVC090 78.1 75 90% 81 29.91 1012.8
12 05:56 Calm 10.00 Overcast OVC085 77 73.9 90% 78 29.9 1012.4
12 04:56 Calm 10.00 Fair CLR 77 73.9 90% 78 29.9 1012.3
12 03:56 SW 5 10.00 Fair CLR 75.9 73.9 94% 75 29.89 1012.0
12 02:56 Calm 10.00 Fair CLR 77 73.9 90% 78 29.88 1011.8
12 01:56 Calm 10.00 Fair CLR 77 73.9 82.9 77 90% 78 29.89 1012.2
12 00:56 S 5 10.00 Partly Cloudy SCT075 78.1 73.9 87% 81 29.91 1012.9
11 23:56 S 7 10.00 A Few Clouds FEW065 79 73.9 85% 83 29.91 1012.9
11 22:56 S 5 10.00 Overcast OVC075 80.1 73.9 82% 85 29.9 1012.5
11 21:56 Calm 10.00 Fair CLR 80.1 73.9 82% 85 29.88 1011.5
11 20:56 W 3 10.00 Mostly Cloudy BKN070 80.1 75.9 87% 85 29.86 1011.1
11 19:56 S 8 10.00 Mostly Cloudy BKN075 82.9 75 91 81 77% 90 29.86 1010.9
11 18:56 SE 13 10.00 Light Rain FEW025 SCT040 BKN050 82 77 85% 90 29.85 1010.7
11 17:56 SE 15 G 23 10.00 Thunderstorm in Vicinity Light Rain OVC038 82 77 85% 90 29.83 1010.2
11 16:56 E 14 10.00 Mostly Cloudy BKN060 87.1 77 72% 99 29.83 1010.1
11 15:56 S 15 10.00 A Few Clouds FEW070 90 75 62% 100 29.82 1009.8
11 14:56 SE 16 10.00 A Few Clouds FEW065 90 75.9 63% 102 29.84 1010.2
11 13:56 SE 13 10.00 A Few Clouds FEW055 90 75 91.9 77 62% 100 29.85 1010.7
11 12:56 S 14 10.00 A Few Clouds FEW050 90 73 58% 98 29.86 1010.9
11 11:56 Vrbl 3 10.00 A Few Clouds FEW040 90 69.1 50% 95 29.87 1011.2
11 10:56 Vrbl 7 10.00 Partly Cloudy SCT027 87.1 73.9 65% 95 29.88 1011.8
11 09:56 W 8 10.00 Partly Cloudy SCT023 84.9 75 72% 93 29.88 1011.8
11 06:56 W 6 10.00 Fair CLR 75.9 72 88% 76 29.86 1010.9
11 05:56 W 6 10.00 Fair CLR 75.9 72 88% 76 29.84 1010.5
Date Time (edt) Wind (mph) Vis. (mi.) Weather Sky Cond. Air Dwpt Max. Min. Relative Humidity Wind Chill (°F) Heat Index (°F) altimeter (in) sea level (mb) 1 hr 3 hr 6 hr
6 hour
Temperature (ºF) Pressure Precipitation (in)